Location: Aufkirchen
(47.9603°N, 11.3653°E)
Time: 08:15:41
(UTC+01:00)

Transit 2A - Pass Details

Date: 05 December 2020
Orbit: 598 x 960 km, 66.7° (Epoch: 16 January)

Event Time Altitude Azimuth Distance (km) Brightness Sun altitude
Rises 19:56:15 0° 299° (WNW) 3,517 10.3 -34.9°
Reaches altitude 10° 20:00:57 10° 331° (NNW) 2,489 9.0 -35.7°
Enters shadow 20:02:21 11° 345° (NNW) 2,363 8.7 -35.9°
Maximum altitude 20:02:47 11° 350° (N) 2,348 - -36.0°
Drops below altitude 10° 20:04:35 10° 9° (N) 2,411 - -36.3°
Sets 20:08:54 0° 43° (NE) 3,238 - -37.0°
